User: anonymous   Login
Location: Campillo
(40.8621°N, 4.2488°W)
Time: 23:21:16
(UTC+00:00)
Language:

SL-4 R/B - Orbit

View from above orbital plane
View from above orbital plane
View from above satellite
View from above satellite

Ground track
Ground track

The orbit data is extracted from the following two-line orbital elements,

1 39679U 14021B   21213.68151054  .00000047  00000-0  20292-4 0  9991
2 39679  51.6182   2.8145 0169264 288.0751  70.1845 15.07042951401192
Epoch (UTC): 01 August 2021 16:21:22
Eccentricity: 0.0169264
inclination: 51.6182°
perigee height: 428 km
apogee height: 662 km
right ascension of ascending node: 2.8145°
argument of perigee: 288.0751°
revolutions per day: 15.07042951
mean anomaly at epoch: 70.1845°
orbit number at epoch: 40119

The dashed part of the orbit path shows where the satellite is in the earth's shadow,  

DLR